Regional Weather Roundup
Issued by NWS Grand Forks, ND

Home | Current Version | Previous Version | Graphics & Text | Print | Product List | Glossary On
Versions: 1 2 3 4 5 6 7 8 9 10 11 12 13 14 15 16 17 18 19 20 21 22 23 24 25 26 27 28 29 30 31 32 33 34 35 36 37 38 39 40 41 42 43 44 45 46 47 48 49 50
000
ASUS43 KFGF 020731
RWRFGF
PRAIRIE TO PINES  WEATHER ROUNDUP
NATIONAL WEATHER SERVICE EASTERN NORTH DAKOTA/GRAND FORKS ND
200 AM CDT THU APR 02 2015

 **SATELLITE DATA USED TO AUGMENT SKY COVER AT AUTOMATED STATIONS**
 *****  WEATHER ACROSS EASTERN NORTH DAKOTA  *****

CITY           SKY/WX    TMP DP  RH WIND       PRES   REMARKS
GRAND FORKS    PTCLDY    36  29  75 W8        29.58S
GRAND FRKS AFB PTCLDY    40  29  65 W10       29.59R
GRAND FRKS NWS   N/A     36 N/A N/A SW6         N/A
DEVILS LAKE    CLEAR     36  25  64 W9        29.58R
FARGO          PTCLDY    40  29  64 SW9       29.68R
WAHPETON ARPT  MOSUNNY   36  27  69 W6        29.71R
$$

 ***** WEATHER ACROSS CENTRAL AND WESTERN NORTH DAKOTA  *****

CITY           SKY/WX    TMP DP  RH WIND       PRES   REMARKS
BISMARCK       CLEAR     37  22  54 W7        29.70S
MINOT          CLEAR     39  23  52 SW15      29.57F
JAMESTOWN      PTCLDY    39  25  57 W10       29.67R
MINOT AFB      CLEAR     38  26  64 SW16      29.56F
GARRISON         N/A     36  26  67 SW14      29.63F
WILLISTON      CLEAR     38  23  55 W13       29.64S
DICKINSON      CLEAR     33  19  56 SW15      29.69F WCI  23
HETTINGER      CLEAR     29  18  63 W8        29.77F WCI  21
$$

 *****  OTHER AIRPORT OBSERVATIONS IN OUR AREA  *****

CITY           SKY/WX    TMP DP  RH WIND       PRES   REMARKS
WALHALLA         N/A     39  28  65 CALM      29.53S
GRAFTON AIRPOR NOT AVBL
VALLEY CITY AR FAIR      39  27  60 W13       29.68R
CANDO          FAIR      34  27  75 W14       29.56F WCI  24
CAVALIER APRT  FAIR      39  30  70 SW7       29.53S
GWINNER        SUNNY     37  28  70 SW10        N/A
SHEYENNE NWR     N/A     35  29  77 SW3       29.95
ROLLA          FAIR      32  28  86 SW12      29.53F WCI  23
 ***** THE ABOVE OBSERVATIONS ARE NON NWS ARE NOT QUALITY
       CONTROLLED AND MAY MIS-REPORT RAIN FOR SNOW...
$$

  *****  WEATHER ACROSS NORTHERN MINNESOTA  *****

CITY           SKY/WX    TMP DP  RH WIND       PRES   REMARKS
FLAG ISLAND    CLEAR     41  36  81 W13       29.46S
WARROAD        CLEAR     39  36  87 SW8       29.53R
ROSEAU         CLEAR     39  34  81 SW8       29.52R
HALLOCK        CLEAR     36  30  80 SW9       29.53S
THF RVR FALLS  PTCLDY    39  30  70 SW8       29.61R
BAUDETTE       CLEAR     41  34  76 W12       29.49S
WASKISH        CLEAR     37  36  93 SW13G18   29.57R
CROOKSTON      PTCLDY    37  30  75 SW9       29.64R
STEPHEN NDAWN    N/A     37  30  75 W8          N/A
GREENBUSH NDAW   N/A     36  34  93 W7          N/A
$$
  *****  WEATHER ACROSS CENTRAL AND WEST MINNESOTA  *****

CITY           SKY/WX    TMP DP  RH WIND       PRES   REMARKS
FOSSTON        CLEAR     32  28  86 SW7       29.64R
BEMIDJI        FAIR      42  35  76 W10       29.62R
PARK RAPIDS    CLEAR     42  34  73 W9        29.64R
ELBOW LAKE     FAIR      40  33  76 W3        29.70F
WADENA         CLEAR     39  32  75 W8        29.67R
DETROIT LAKES  CLEAR     41  32  70 W6        29.68R
MOORHEAD       PTCLDY    43  32  65 SW7       29.69S
FERGUS FALLS   PTCLDY    39  30  70 W3        29.72R
MORRIS MN      CLOUDY    39  32  75 W7        29.71S
STAPLES        PTCLDY    37  32  81 W7        29.66S
$$
  *****  WEATHER ELSEWHERE ACROSS MINNESOTA  *****

CITY           SKY/WX    TMP DP  RH WIND       PRES   REMARKS
DULUTH         CLOUDY    52  41  66 W17G25    29.54R
INTRNTL FALLS  PTCLDY    44  37  76 W15G22    29.49R
ELY            CLOUDY    45  37  76 SW6       29.49R
CLOQUET        CLOUDY    52  41  66 W12G23    29.57R
WHEATON        MOCLDY    39  30  70 W3        29.74S
BRAINERD       PTCLDY    46  35  65 W8        29.65R
HIBBING        PTCLDY    48  37  65 W13G23    29.54R
ALEXANDRIA     MOCLDY    44  33  65 NW8       29.70R
SAINT CLOUD    CLOUDY    48  34  58 NW12      29.66R
MINNEAPOLIS    CLOUDY    55  44  66 W17       29.65R
$$

  *****  WEATHER ACROSS SOUTH DAKOTA  *****

CITY           SKY/WX    TMP DP  RH WIND       PRES   REMARKS
SIOUX FALLS    CLOUDY    51  30  44 NW5       29.79R
BROOKINGS      CLOUDY    45  32  61 CALM      29.77S
WATERTOWN      CLOUDY    42  31  64 W5        29.75R
HURON          CLOUDY    39  27  62 NW3       29.78R
SISSETON         N/A     45  28  51 NW10      29.72R
ABERDEEN       CLOUDY    35  23  61 W9        29.77R
MITCHELL       CLOUDY    45  27  49 NW7       29.80R
PIERRE         CLOUDY    39  21  48 NW8       29.80R
MOBRIDGE       PTCLDY    36  23  59 CALM      29.73R
RAPID CITY     CLEAR     34  12  40 W6        29.85S
$$

  *****  SOME WEATHER IN NEARBY STATES *****

CITY           SKY/WX    TMP DP  RH WIND       PRES   REMARKS
GLASGOW MT     CLOUDY    37  25  61 W26G35    29.72S
GREAT FALLS MT CLOUDY    32  26  78 NW12      30.01R WCI  23
CHEYENNE WY    MOCLDY    32  22  66 N7        29.93S
SCOTTSBLUFF NE CLEAR     32  23  69 NW10      29.93R WCI  24
OMAHA NE       RAIN      55  54  96 N10       29.73R
DES MOINES IA  LGT RAIN  60  55  83 N9        29.67F
DAVENPORT IA   CLOUDY    61  41  47 S21G26    29.69F
CHICAGO IL     MOCLDY    58  35  42 S21G26    29.79S
EAU CLAIRE WI  LGT RAIN  56  53  90 SW9       29.61R
LA CROSSE WI   CLOUDY    63  46  54 S9        29.62F
$$

  *****  SOME NATIONAL WEATHER *****

CITY           SKY/WX    TMP DP  RH WIND       PRES   REMARKS
LA GUARDIA NY  CLEAR     43  12  28 CALM      30.23R
RALEIGH NC     PTCLDY    47  35  63 S6        30.28R
ATLANTA GA     MOCLDY    62  51  67 CALM      30.11R
NEW ORLEANS LA CLOUDY    71  67  87 S3        30.05R
OKLAHOMA CITY  MOCLDY    68  61  78 S17       29.72F
ALBUQUERQUE NM CLEAR     51  20  29 SE13      29.96R
SALT LAKE CITY CLOUDY    42  13  30 NW10      29.96R
LOS ANGELES CA CLEAR     58  49  72 CALM      29.96R
BOISE ID       CLEAR     37  23  56 W8        30.12S
SEATTLE WA     PTCLDY    44  41  89 E5        30.34R
$$

*** WEATHER ACROSS MANITOBA...SASKATCHEWAN AND ONTARIO ***
                ***ONTARIO***

CITY           SKY/WX    TMP DP  RH WIND       PRES   REMARKS
GERALDTON      MOCLDY    36  34  93 SE8       29.42F
THUNDER BAY    CLOUDY    32  32 100 CALM      29.40F
SIOUX LOOKOUT  PTCLDY    34  28  80 S7        29.33F
TORONTO        CLOUDY    37  21  52 CALM      30.05F
BIG TROUT LK   LGT SNOW  32  32 100 E7        29.42F
PICKLE LAKE    NOT AVBL
DRYDEN         MOCLDY    41  36  81 W13       29.36R
KENORA         CLOUDY    41  36  81 W16G24    29.41R
$$
                *** MANITOBA***

CITY           SKY/WX    TMP DP  RH WIND       PRES   REMARKS
BRANDON        CLEAR     36  30  80 SW14      29.48F
DAUPHIN        CLEAR     36  30  80 SW7       29.42F
ISLAND LAKE    NOT AVBL
PILOT MOUND      N/A     37  28  70 W7          N/A
THE PAS        LGT SNOW  16  12  86 N14G25    29.62R VSB 3/4 WCI   1
THOMPSON       LGT SNOW   3  -2  78 N16G28    29.76S DRFTSNOWWCI -16
WINNIPEG       CLEAR     39  30  70 W13       29.47S
LYNN LAKE      CLOUDY     0  -6  78 N14       29.92R WCI -19
CHURCHILL      CRYSTALS  -9 -13  84 N10       30.03F WCI -28
GILLAM         LGT SNOW   1  -4  78 NE22G29   29.79F VSB 3/4 WCI -21
$$
                ***SASKATCHEWAN***

CITY           SKY/WX    TMP DP  RH WIND       PRES   REMARKS
ESTEVAN        PTCLDY    36  27  69 W20       29.53F
KINDERSLEY     LGT SNOW  30  27  86 N30G43    29.75R WCI  15
LLOYDMINSTER   CLOUDY    27  21  80 N15G24    29.89R WCI  15
PRINCE ALBERT  LGT SNOW  21  18  86 N22G32    29.70R WCI   5
REGINA         FLURRIES  34  34 100 W20       29.44F WCI  22
YORKTON        MOCLDY    36  28  75 SW8       29.41F
N. BATTLEFORD  FLURRIES  28  27  93 N21G26    29.80R WCI  15
LA RONGE       PTCLDY    12   9  85 N9G18     29.89R WCI   0
SASKATOON      LGT SNOW  23  21  93 N25G43    29.68R DRFTSNOWWCI   7
SWIFT CURRENT  LGT SNOW  27  27 100 NW28G39   29.65R WCI  11
$$
NOTE: THESE ARE AUTOMATED STATIONS WITH LIMITED QUALITY CONTROL
      "FAIR" INDICATES FEW OR NO CLOUDS BELOW 12,000 FEET WITH NO
      SIGNIFICANT WEATHER AND/OR OBSTRUCTIONS TO VISIBILITY.
      SKY/WX - SKY CONDITION AND SIGNIFICANT WEATHER.
      TMP - AIR TEMPERATURE.    DP   - DEWPOINT TEMPERATURE.
      RH  - RELATIVE HUMIDITY.  PRES - PRESSURE.
      HX  - HEAT INDEX.         WCI  - WIND CHILL INDEX.
$



USA.gov is the U.S. government's official web portal to all federal, state and local government web resources and services.